Location: Poughquag
(41.6090°N, 73.6820°W)
Time: 12:49:40
(UTC-04:00)

Tiros 1 - Pass Details

Date: 04 June 2020
Orbit: 630 x 664 km, 48.4° (Epoch: 06 July)

Event Time Altitude Azimuth Distance (km) Brightness Sun altitude
Rises 17:04:44 0° 298° (WNW) 2,955 11.4 34.7°
Reaches altitude 10° 17:07:05 10° 297° (WNW) 2,037 10.8 34.3°
Maximum altitude 17:11:47 83° 210° (SSW) 645 7.8 33.4°
Drops below altitude 10° 17:16:24 10° 123° (ESE) 2,009 9.3 32.5°
Sets 17:18:43 0° 123° (ESE) 2,911 10.1 32.1°
